Location: Dodge City Co - Operative Exchange Grain Elevator Number 8
(38.1218°N, 99.7124°W)
Time: 14:57:10
(UTC+00:00)

Daily predictions for brighter satellites

Satellite Brightness Start Highest point End
(mag) Time Altitude Azimuth Time Altitude Azimuth Time Altitude Azimuth
Cosmos 1943 4.2 12:04:05 23° WNW 12:05:10 24° WNW 12:09:41 10° N
Okean O Rocket 2.7 12:03:33 10° NNE 12:07:46 48° E 12:11:57 10° S
ADEOS Rocket 4.1 12:05:01 10° SE 12:11:05 52° ENE 12:17:52 10° N
Cosmos 1633 3.3 12:10:05 10° NNW 12:13:19 30° W 12:16:30 10° SSW
Cosmos 1484 Rocket 3.7 12:13:40 10° N 12:17:09 29° WNW 12:20:38 10° SW
Cosmos 1633 Rocket 3.1 12:15:41 10° N 12:20:06 88° E 12:24:29 10° S
Cosmos 2233 Rocket 4.5 12:14:10 10° N 12:20:26 66° E 12:26:42 10° SSE
COSMO-SKYMED 1 2.7 12:16:34 10° S 12:20:47 51° W 12:25:02 10° NNW
Cosmos 1238 Rocket 3.6 12:16:17 10° NNW 12:21:35 48° W 12:25:57 10° SSW
CZ-4B DEB 4.1 12:18:25 10° N 12:23:52 72° WNW 12:29:16 10° SSW
CZ-4B R/B 3.4 12:19:28 10° NNE 12:24:47 73° ESE 12:30:03 10° S
ALOS 2.6 12:20:21 10° N 12:24:47 44° WNW 12:29:11 10° SW
Cosmos 1666 Rocket 3.5 12:22:16 10° NNW 12:26:38 62° W 12:30:56 10° S
Cosmos 1862 3.7 12:24:47 10° NNW 12:28:31 40° W 12:32:14 10° SSW
METEOR-M 4.3 12:23:33 10° N 12:28:41 49° WNW 12:33:47 10° SW
NOAA 6 4.0 12:25:25 10° NNE 12:30:36 86° WNW 12:35:44 10° SSW
ATLAS 2AS CENTAUR R/B 3.9 12:26:34 10° NNW 12:33:47 45° NE 12:40:22 10° ESE
SL-8 R/B 3.8 12:29:18 10° SW 12:34:05 82° SE 12:38:55 10° ENE
Shenzhou-11 Module 2.8 12:36:15 12° NW 12:38:26 34° N 12:40:53 10° E
H-2A R/B 4.3 12:38:48 10° NNW 12:41:11 14° WNW 12:43:35 10° W
COSMOS 2406 4.3 12:36:33 10° S 12:41:58 50° ESE 12:47:26 10° NNE
Cosmos 1346 Rocket 2.8 12:38:11 10° N 12:42:05 84° E 12:45:58 10° S
Cosmos 1606 2.6 12:38:48 10° SSW 12:42:34 74° W 12:46:22 10° N
ISS -3.0 12:39:54 10° WSW 12:42:59 37° NNW 12:46:10 10° NE
STARLINK-1129 4.5 12:51:44 10° NNW 12:54:56 35° NE 12:58:07 10° ESE
